Flag for Canada Weather past 2 weeks in St. John's, Newfoundland and Labrador, Canada

Now
41 °F

Light rain. Fog.


Feels Like: 28 °F
Forecast: 30 / 42 °F
Wind: 44 mph from South

Location: St. John's

Current Time: Jan 25, 2015 at 9:19:09 AM

Latest Report: Jan 25, 2015 at 8:30 AM


Visibility: 2 mi

Pressure: 29.19 "Hg

Humidity: 93%

Dew point: 39 °F

Location of St. John'sLocation

Historic Weather in St. John's — Graph

°F

St. John's temperature yesterday

Maximum temperature yesterday: 32 °F (at 11:30 PM)
Minimum temperature yesterday: 16 °F (at 2:30 AM)
Average temperature yesterday: 22 °F

Past Weeks' High & Low Weather Summary

 TemperatureHumidityPressure
High43 °F (Jan 20, 4:30 AM)100% (Jan 10, 7:30 AM)30.58 "Hg (Jan 10, 7:30 AM)
Low5 °F (Jan 14, 1:30 AM)62% (Jan 11, 4:30 PM)29.15 "Hg (Jan 23, 12:30 PM)
Average25 °F87%29.97 "Hg
* Reported Jan 10 7:30 AM — Jan 25 7:30 AM, St. John's, Weather by CustomWeather, © 2014

Note: Actual official high and low records may vary slightly from our data, if they occured in-between our weather recording intervals... More about our weather records

Advertising

St. John's weather history for previous 24 hours

 ConditionsComfort  
Time TempWeatherWind HumidityBarometerVisibility
7:30 AM
Jan 25
39 °FRain. Fog.37 mph93%29.30 "Hg3 mi
6:30 AM37 °FLight rain. Low clouds.44 mph100%29.39 "Hg5 mi
5:30 AM36 °FLight rain. Low clouds.35 mph100%29.48 "Hg5 mi
4:30 AM36 °FLight rain. Low clouds.37 mph93%29.58 "Hg12 mi
3:30 AM34 °FLight rain. Low clouds.29 mph100%29.68 "Hg15 mi
2:30 AM34 °FLight rain. Low clouds.23 mph93%29.75 "Hg15 mi
1:30 AM32 °FLight snow. Low clouds.20 mph100%29.80 "Hg4 mi
12:30 AM34 °FLow clouds.22 mph93%29.84 "Hg15 mi
11:30 PM
Jan 24
32 °FLow clouds.18 mph93%29.89 "Hg15 mi
10:30 PM28 °FPassing clouds.18 mph93%29.92 "Hg15 mi
9:30 PM27 °FOvercast.14 mph93%29.94 "Hg15 mi
8:30 PM27 °FPassing clouds.13 mph86%29.96 "Hg15 mi
7:30 PM27 °FMostly cloudy.16 mph93%29.97 "Hg15 mi
6:30 PM27 °FOvercast.14 mph93%29.95 "Hg15 mi
5:30 PM27 °FMostly cloudy.13 mph93%29.95 "Hg15 mi
4:30 PM27 °FPartly cloudy.10 mph93%29.94 "Hg15 mi
3:30 PM28 °FPartly sunny.12 mph80%29.93 "Hg15 mi
2:30 PM27 °FOvercast.16 mph80%29.93 "Hg15 mi
1:30 PM28 °FOvercast.12 mph74%29.91 "Hg15 mi
12:30 PM27 °FOvercast.13 mph80%29.92 "Hg15 mi
11:30 AM23 °FBroken clouds.7 mph80%29.93 "Hg15 mi
10:30 AM19 °FMostly cloudy.8 mph73%29.93 "Hg15 mi
9:30 AM18 °FBroken clouds.13 mph79%29.92 "Hg15 mi
Weather by CustomWeather, © 2014

See weather overviewHow to use our weather pages